Regional Weather Roundup
Issued by NWS Sterling, VA

Home | Current Version | Previous Version | Graphics & Text | Print | Product List | Glossary On
Versions: 1 2 3 4 5 6 7 8 9 10 11 12 13 14 15 16 17 18 19 20 21 22 23 24 25 26 27 28 29 30 31 32 33 34 35 36 37 38 39 40 41 42 43 44 45 46 47 48 49 50
000
ASUS41 KLWX 310010
RWRLWX

REGIONAL WEATHER ROUNDUP
NATIONAL WEATHER SERVICE BALTIMORE MD/WASHINGTON DC
800 PM EDT TUE AUG 30 2016

Note: "FAIR" indicates few or no clouds below 12,000 feet
with no significant weather and/or obstructions to visibility.
 TC=TEMPERATURE CELSIUS

 * =Non NWS site. Station does not report precipitation (e.g. rain,
    snow, etc.), thunder, or fog.

DCZ001-MDZ009-015-VAZ040>042-051-053>054-310100-
WASHINGTON METRO

CITY           SKY/WX    TMP DP  RH WIND       PRES   REMARKS
WASHINGTON NAT MOCLDY    82  63  52 CALM      30.03S
DULLES         PTCLDY    82  62  50 NE6       30.03S
ANDREWS AFB    PTCLDY    78  64  60 SE1       30.03S
FT BELVOIR     CLEAR     78  65  63 SE1       30.02S
QUANTICO       PTCLDY    83  68  60 SE10      30.03R
COLLEGE PARK*  CLEAR     75  63  64 CALM      30.03S
LEESBURG*      CLEAR     82  68  61 NE3       30.04S
MANASSAS*      CLEAR     81  72  74 S5        30.02S
GAITHERSBURG*  CLEAR     79  63  57 CALM      30.07F

$$

MDZ006>007-011-014-310100-
BALTIMORE METRO

CITY           SKY/WX    TMP DP  RH WIND       PRES   REMARKS
BWI AIRPORT    PTCLDY    78  63  59 CALM      30.02F
MD SCIENCE CTR   N/A     83  61  47 MISG      30.03F
MARTIN STATE   CLEAR     81  68  65 CALM      30.03F
ANNAPOLIS      CLEAR     80  69  69 CALM      30.03S
FORT MEADE*    CLEAR     72  66  83 CALM      30.05F

$$

MDZ012-015-019>023-310100-
MARYLAND EASTERN SHORE

CITY           SKY/WX    TMP DP  RH WIND       PRES   REMARKS
OCEAN CITY     PTCLDY    78  72  81 CALM      30.03S
SALISBURY      CLEAR     77  71  82 CALM      30.03S
BAY BRIDGE AP* CLEAR     79  64  61 MISG      30.03S
CAMBRIDGE*     CLEAR     75  64  69 CALM      30.03R
EASTON*        CLEAR     81  66  61 CALM      30.07S

$$

MDZ017>025-310100-
SOUTHERN MARYLAND

CITY           SKY/WX    TMP DP  RH WIND       PRES   REMARKS
PATUXENT RIVER PTCLDY    77  64  64 CALM      30.02F
ST INIGOES     CLEAR     75  68  78 CALM      30.01F
LEONARDTOWN*   CLEAR     73  64  73 CALM      30.04F

$$

MDZ003>005-310100-
NORTH CENTRAL MARYLAND

CITY           SKY/WX    TMP DP  RH WIND       PRES   REMARKS
FREDERICK*     CLEAR     81  68  65 CALM      30.05F
HAGERSTOWN APT CLEAR     83  56  39 S5        30.03F

$$

MDZ501>502-310100-
WESTERN MARYLAND

CITY           SKY/WX    TMP DP  RH WIND       PRES   REMARKS
OAKLAND*       CLEAR     70  48  46 CALM      30.16F
CUMBERLAND*    CLEAR     81  55  41 CALM      30.07S

$$

VAZ025>031-310100-
SHENANDOAH VALLEY

CITY           SKY/WX    TMP DP  RH WIND       PRES   REMARKS
WINCHESTER*    CLEAR     79  63  57 E3        30.05S
FRONT ROYAL*   FAIR      77  68  73 CALM      30.04R
LURAY*         FAIR      77  72  83 CALM      30.05S
NEW MARKET*    CLOUDY    75  69  82 CALM      30.03S
STAUNTON*      CLOUDY    79  68  69 CALM      30.08S
WAYNESBORO*    MOCLDY    78  68  69 SE5       30.08S

$$

WVZ021-048>050-054>055-310100-
EASTERN WEST VIRGINIA PANHANDLE

CITY           SKY/WX    TMP DP  RH WIND       PRES   REMARKS
MARTINSBURG    CLEAR     77  63  61 CALM      30.03S
PETERSBURG*    CLEAR     80  66  63 CALM      30.04S

$$

VAZ036>039-050-310100-
CENTRAL FOOTHILLS

CITY           SKY/WX    TMP DP  RH WIND       PRES   REMARKS
CHARLOTTESVILL CLEAR     84  68  58 E5        30.03S
CULPEPER*      CLEAR     76  71  86 CALM      30.03F
ORANGE*        NOT AVBL
GORDONSVILLE*  NOT AVBL
WARRENTON*     FAIR      76  65  69 CALM      30.03S

$$

VAZ055>057-310100-
NORTH AND CENTRAL PIEDMONT

CITY           SKY/WX    TMP DP  RH WIND       PRES   REMARKS
FREDERICKSBRG* CLEAR     81  70  70 CALM      30.01S
STAFFORD*      CLEAR     75  70  84 CALM      30.06S

$$

NCZ024-NYZ072-PAZ021-071-VAZ022-071-310100-
OTHER REGIONAL OBSERVATIONS

CITY           SKY/WX    TMP DP  RH WIND       PRES   REMARKS
NEW YORK CITY  PTCLDY    76  65  68 CALM      30.07S
PHILADELPHIA   PTCLDY    81  69  67 CALM      30.03R
PITTSBURGH     MOCLDY    79  52  38 W6        30.07S
ROANOKE        PTCLDY    83  67  58 SE3       30.07S
RICHMOND       PTCLDY    80  69  69 E6        30.02S
RALEIGH        PTCLDY    85  66  53 E6        30.00S

$$

ANZ530>537-310100-
MARINE OBSERVATIONS

STATION/POSITION TIME  TEMP    WIND        PRES
                       AIR SEA DIR/SP/G
                 (UTC) (F)     (DEG/KT/KT) (MB)
THOMAS PT LIGHT  0000   83 83   80/  5/  6 1018.1F
BALT KEY BRIDGE  2342                      1016.6F
COVE POINT       2342                      1017.1F
LEWISETTA        2336      85              1016.2F
SOLOMONS ISLAND  2336      84                N/A
PINEY POINT      2330           70/  4/  5   N/A

$$




USA.gov is the U.S. government's official web portal to all federal, state and local government web resources and services.